Ketchikan, AK

6:02 AM AKST on December 18, 2018 (GMT -0900)
Ketchikan International

Weather History for PAKT - February, 2018

Change the Weather History Date:

Tuesday, February 6, 2018

  Actual Average Record
Temperature  
Mean Temperature 33 °F -  
Max Temperature 36 °F 42 °F 53 °F (1993)
Min Temperature 30 °F 30 °F 17 °F (2014)
Degree Days  
Heating Degree Days 32    
Moisture  
Dew Point 32 °F    
Average Humidity 97    
Maximum Humidity 100    
Minimum Humidity 92    
Precipitation  
Precipitation 0.19 in - - ()
Sea Level Pressure  
Sea Level Pressure 30.12 in    
Wind  
Wind Speed 4 mph (SSE)    
Max Wind Speed 8 mph    
Max Gust Speed -    
Visibility 3 miles    
Events Rain , Snow    
Averages and records for this station are not official NWS values.
T = Trace of Precipitation, MM = Missing Value Source: NWS Daily Summary

Daily Weather History Graph

Daily Weather History Graph

Search for Another Location

Airport or City:

Astronomy

Feb. 06, 2018 Rise Set
Actual Time 7:28 AM AKST 4:33 PM AKST
Civil Twilight 6:49 AM AKST 5:13 PM AKST
Nautical Twilight 6:05 AM AKST 5:56 PM AKST
Astronomical Twilight 5:23 AM AKST 6:39 PM AKST
Moon No Moon Rise 10:13 AM AKST (2/6)
Length of Visible Light 10h 23m
Length of Day
9h 04m
Waning Gibbous, 58% of the Moon is Illuminated
Feb 6
Waning Gibbous
Feb 7
Last Quarter
Feb 15
New
Feb 22
First Quarter
Mar 1
Full

Hourly Weather History & Observations

Time (AKST) Temp. Windchill Dew Point Humidity Pressure Visibility Wind Dir Wind Speed Gust Speed Precip Events Conditions
12:37 AM - - - N/A% 30.22 in 10.0 mi Calm Calm - N/A   Mostly Cloudy
12:53 AM - - - N/A% 30.22 in 10.0 mi SE 3.5 mph - N/A   Overcast
1:53 AM - - - N/A% 30.21 in 10.0 mi South 3.5 mph - N/A   Overcast
2:53 AM - - - N/A% 30.21 in 10.0 mi South 4.6 mph - N/A   Overcast
3:43 AM - - - N/A% 30.21 in 2.5 mi South 3.5 mph - 0.00 in   Unknown
3:53 AM - - - N/A% 30.21 in 1.2 mi South 3.5 mph - 0.00 in   Unknown
4:10 AM - - - N/A% 30.20 in 1.0 mi South 3.5 mph - 0.01 in   Unknown
4:40 AM - - - N/A% 30.19 in 1.0 mi SSE 4.6 mph - 0.04 in   Unknown
4:53 AM - - - N/A% 30.18 in 1.0 mi South 5.8 mph - 0.05 in   Unknown
5:05 AM - - - N/A% 30.19 in 1.8 mi South 4.6 mph - 0.00 in   Unknown
5:12 AM - - - N/A% 30.18 in 2.0 mi South 5.8 mph - 0.00 in   Unknown
5:53 AM - - - N/A% 30.16 in 2.5 mi South 5.8 mph - 0.02 in   Unknown
6:08 AM 30.0 °F 24.1 °F 28.9 °F 96% 30.15 in 2.0 mi SSE 5.8 mph - 0.01 in Snow Light Snow
6:51 AM 30.2 °F 23.4 °F 28.4 °F 93% 30.13 in 3.0 mi SSE 6.9 mph - 0.03 in Snow Light Snow
6:53 AM 30.0 °F 24.1 °F 28.9 °F 96% 30.14 in 3.0 mi SSE 5.8 mph - 0.03 in Snow Light Snow
7:53 AM 30.0 °F 25.2 °F 28.9 °F 96% 30.12 in 3.0 mi Variable 4.6 mph - 0.01 in Snow Light Snow
8:53 AM 32.0 °F 25.6 °F 30.0 °F 92% 30.12 in 2.0 mi SSE 6.9 mph - 0.01 in Snow Light Snow
9:53 AM 32.0 °F 27.5 °F 30.9 °F 96% 30.10 in 2.0 mi Variable 4.6 mph - 0.02 in Snow Light Snow
10:53 AM 32.0 °F 24.8 °F 32.0 °F 100% 30.08 in 3.0 mi SE 8.1 mph - N/A Rain Light Rain
11:53 AM 34.0 °F 28.0 °F 32.0 °F 92% 30.08 in 3.0 mi SE 6.9 mph - 0.00 in Rain Light Rain
12:53 PM 34.0 °F 28.0 °F 32.0 °F 92% 30.08 in 3.0 mi SE 6.9 mph - 0.03 in Rain Light Rain
1:53 PM 33.8 °F 27.0 °F 33.8 °F 100% 30.07 in 3.0 mi ESE 8.1 mph - N/A Rain Light Rain
2:53 PM 34.0 °F 28.8 °F 34.0 °F 100% 30.06 in 3.0 mi SE 5.8 mph - 0.01 in   Overcast
3:53 PM 33.8 °F 27.7 °F 33.8 °F 100% 30.06 in 2.0 mi SE 6.9 mph - N/A   Overcast
4:53 PM 34.0 °F 28.8 °F 34.0 °F 100% 30.07 in 2.0 mi SE 5.8 mph - 0.01 in   Overcast
5:53 PM 34.0 °F 28.8 °F 34.0 °F 100% 30.07 in 3.0 mi SSE 5.8 mph - N/A   Overcast
6:53 PM 34.0 °F 28.0 °F 34.0 °F 100% 30.08 in 3.0 mi SE 6.9 mph - N/A   Overcast
7:53 PM 36.0 °F 31.1 °F 35.1 °F 97% 30.08 in 3.0 mi SSE 5.8 mph - N/A   Overcast
8:53 PM 36.0 °F 32.1 °F 35.1 °F 97% 30.09 in 3.0 mi SSE 4.6 mph - N/A   Overcast
9:15 PM - - - N/A% 30.09 in 2.0 mi SSE 5.8 mph - N/A   Overcast
9:40 PM - - - N/A% 30.09 in 3.0 mi South 4.6 mph - N/A   Overcast
9:53 PM - - - N/A% 30.09 in - SSE 4.6 mph - N/A   Overcast
10:06 PM - - - N/A% 30.09 in 2.5 mi SE 3.5 mph - N/A   Overcast
10:28 PM - - - N/A% 30.08 in 1.5 mi SE 4.6 mph - N/A   Overcast
10:46 PM - - - N/A% 30.08 in - SE 3.5 mph - N/A   Overcast
10:53 PM - - - N/A% 30.09 in 2.5 mi SE 3.5 mph - N/A   Overcast
11:02 PM - - - N/A% 30.09 in 2.5 mi ESE 5.8 mph - N/A   Overcast
11:09 PM - - - N/A% 30.09 in 2.0 mi ESE 4.6 mph - N/A   Overcast
11:16 PM - - - N/A% 30.09 in 1.8 mi ESE 4.6 mph - N/A   Overcast
11:53 PM - - - N/A% 30.10 in 2.0 mi SE 4.6 mph - N/A   Overcast